Location: Newark
(37.9000°S, 166.5167°W)
Time: 20:52:39
(UTC+00:00)

Envisat - Pass Details

Date: 28 January 2020
Orbit: 764 x 766 km, 98.1° (Epoch: 22 February)

Event Time Altitude Azimuth Distance (km) Brightness Sun altitude
Rises 06:51:06 0° 183° (S) 3,267 6.7 -5.8°
Reaches altitude 10° 06:53:51 10° 197° (SSW) 2,333 6.2 -6.2°
Maximum altitude 06:57:46 23° 246° (WSW) 1,622 5.9 -6.9°
Drops below altitude 10° 07:01:40 10° 296° (WNW) 2,311 6.0 -7.6°
Sets 07:04:24 0° 311° (NW) 3,229 6.5 -8.0°
